Regional Weather Roundup
Issued by NWS

Home | Current Version | Previous Version | Graphics & Text | Print | Product List | Glossary On
Versions: 1 2 3 4 5 6 7 8 9 10 11 12 13 14 15 16 17 18 19 20 21 22 23 24 25 26 27
000
ASUS45 KSLC 220810
RWRUT

UTAH REGIONAL WEATHER ROUNDUP
NATIONAL WEATHER SERVICE SALT LAKE CITY UT
200 AM MDT WED MAR 22 2017

UTZ001>011-023>025-220900-

NORTHERN UTAH

CITY           SKY/WX    TMP DP  RH WIND       PRES   REMARKS
BRIGHAM CITY     N/A     54  48  80 CALM      29.93F
HILL AFB       RAIN      55  43  62 CALM      29.96R
LOGAN          LGT RAIN  54  46  74 CALM      29.95R
OGDEN          LGT RAIN  57  43  59 SE5       29.93S
SALT LAKE CITY CLOUDY    57  43  59 N13       29.92S
WENDOVER       CLOUDY    55  36  47 NW9       29.92S
HEBER CITY     CLOUDY    52  37  58 E6        29.95F

$$

UTZ011>015-024>027-220900-

CENTRAL/NORTHEAST UTAH

CITY           SKY/WX    TMP DP  RH WIND       PRES   REMARKS
PROVO AIRPORT  CLOUDY    57  37  47 N6        29.95S
MOAB/CANYONLAN CLOUDY    59  27  29 CALM      29.93F
DELTA          MOCLDY    50  32  50 S7        29.95F
PRICE          CLOUDY    52  30  43 NE5       29.99F
ROOSEVELT      CLOUDY    48  36  61 SW7       29.99S
VERNAL         CLOUDY    50  29  44 E5        29.96S

$$

UTZ013>016-019>022-027-220900-

SOUTHERN UTAH

CITY           SKY/WX    TMP DP  RH WIND       PRES   REMARKS
BRYCE CANYON   MOCLDY    33  28  81 CALM      30.12F
CEDAR CITY     MOCLDY    55  30  38 S13       30.00S
MILFORD        CLOUDY    54  31  41 SW12      29.95F
ST GEORGE      CLOUDY    65  34  31 SE6       29.92F
HANKSVILLE     CLOUDY    55  28  35 SE8       29.96S
BLANDING       MOCLDY    48  22  36 NE6       30.14S

$$

REGIONAL REPORTS     COLORADO/ARIZONA

CITY           SKY/WX    TMP DP  RH WIND       PRES   REMARKS
CRAIG, CO      CLOUDY    43  28  55 VRB3      30.04F
GRAND JUNCTION CLOUDY    57  31  37 E13       29.98F
RIFLE, CO      CLEAR     50  32  50 SW3       30.04F
MONTROSE, CO   PTCLDY    49  30  48 SE6       30.08S
CORTEZ, CO     CLOUDY    40  30  67 NE6       30.11S
COLORADO CITY    N/A     55  32  41 CALM      30.04F
PAGE, AZ       CLOUDY    64  19  17 NE5       29.98S
GRAND CANYON   MOCLDY    41  30  65 CALM      30.13S
KINGMAN, AZ    PTCLDY    60  15  17 S12       29.98S
FLAGSTAFF, AZ  MOCLDY    40  28  62 CALM      30.14F

$$

REGIONAL REPORTS    NEVADA/IDAHO/WYOMING

CITY           SKY/WX    TMP DP  RH WIND       PRES   REMARKS
LAS VEGAS, NV  CLOUDY    69  44  40 SW9       29.88F
ELY, NY        MOCLDY    47  38  71 S10       29.97F
ELKO, NV       LGT RAIN  42  37  82 NW3       29.94F
POCATELLO, ID  CLOUDY    47  44  90 S7        29.95F
BURLEY, ID     CLOUDY    46  43  89 S8        29.92F
FORT BRIDGER,  PTSUNNY   45  31  57 NW8       30.06R
EVANSTON, WY   LGT RAIN  42  35  76 SW18G29   30.03R
ROCK SPRINGS,  CLOUDY    46  28  49 S9        29.99S
KEMMERER, WY     N/A     37  32  81 SW6       30.02S WCI  33

$$




USA.gov is the U.S. government's official web portal to all federal, state and local government web resources and services.